[Date Prev][Date Next][Thread Prev][Thread Next] - [Date Index][Thread Index][Author Index]

2 Line ISS Keps 9-13



ISS
1 25544U 98067A   03256.20849043  .00013220  00000-0  15220-3 0  4891
2 25544  51.6325 296.9015 0005950 238.9305 238.9958 15.62326139274752


----
Via the sarex mailing list at AMSAT.ORG courtesy of AMSAT-NA.
To unsubscribe, send "unsubscribe sarex" to Majordomo@amsat.org



AMSAT Top AMSAT Home